{"data":{"norad_id":32791,"epoch":"2026-09-19T23:10:16.760064Z","epoch_age_seconds":60521,"freshness":"FRESH","line1":"1 32791U 08021J   26262.96547176  .00014057  00000+0  40691-3 0  9995","line2":"2 32791  97.7577 265.6353 0002394  30.6292 329.5090 15.35713894  1810","mean_motion":15.35713894,"eccentricity":0.0002394,"inclination_deg":97.7577,"raan_deg":265.6353,"arg_perigee_deg":30.6292,"mean_anomaly_deg":329.509,"bstar":0.00040691,"rev_number":181,"period_min":93.767465777711,"perigee_km":457.16409194381,"apogee_km":460.43761778872,"semimajor_km":6836.9378548663,"source":"CELESTRAK","updated_at":"2026-09-20T09:00:47.987086Z"}}